This is the latest recevied weather packets stored in our database for station/object KJ5BMY-13. If no packets are shown the sender has not sent any weather packets the latest 10 day(s).
| Time | Temp. | Humidity | Pressure | Rain* | Wind** | Luminosity | Snow |
|---|---|---|---|---|---|---|---|
| 1777653682 | 17.78° C | 67% | 1019.5 hPa | 0 mm | - | - | - |
| 1777653379 | 17.78° C | 67% | 1019.4 hPa | 0 mm | - | - | - |
| 1777653076 | 17.22° C | 66% | 1019.3 hPa | 0 mm | - | - | - |
| 1777652772 | 17.78° C | 65% | 1019.5 hPa | 0 mm | - | - | - |
| 1777652469 | 17.78° C | 66% | 1019.5 hPa | 0 mm | - | - | - |
| 1777652166 | 17.22° C | 67% | 1019.7 hPa | 0 mm | - | - | - |
| 1777651863 | 16.67° C | 67% | 1019.5 hPa | 0 mm | - | - | - |
| 1777651560 | 16.11° C | 70% | 1019.6 hPa | 0 mm | - | - | - |
| 1777651256 | 16.11° C | 70% | 1020 hPa | 0 mm | - | - | - |
| 1777650953 | 15.56° C | 71% | 1019.9 hPa | 0 mm | - | - | - |
| 1777650650 | 15° C | 70% | 1019.8 hPa | 0 mm | - | - | - |
| 1777650348 | 14.44° C | 70% | 1019.5 hPa | 0 mm | - | - | - |
| 1777650045 | 14.44° C | 68% | 1019.8 hPa | 0 mm | - | - | - |
| 1777649742 | 14.44° C | 67% | 1019.8 hPa | 0 mm | - | - | - |
| 1777649439 | 14.44° C | 69% | 1020.1 hPa | 0 mm | - | - | - |
| 1777649135 | 14.44° C | 70% | 1019.7 hPa | 0 mm | - | - | - |
| 1777648833 | 14.44° C | 70% | 1019.3 hPa | 0 mm | - | - | - |
| 1777648529 | 14.44° C | 72% | 1019.4 hPa | 0 mm | - | - | - |
| 1777648226 | 14.44° C | 71% | 1019.5 hPa | 0 mm | - | - | - |
| 1777647921 | 14.44° C | 71% | 1019.5 hPa | 0 mm | - | - | - |
| 1777647619 | 14.44° C | 74% | 1019.2 hPa | 0 mm | - | - | - |
| 1777647315 | 14.44° C | 75% | 1019.4 hPa | 0 mm | - | - | - |
| 1777647013 | 14.44° C | 76% | 1019.7 hPa | 0 mm | - | - | - |
| 1777646709 | 13.89° C | 77% | 1019.8 hPa | 0 mm | - | - | - |
| 1777646404 | 13.89° C | 77% | 1019.5 hPa | 0 mm | - | - | - |
* Rain latest hour (hover to see other rain measurements)
** Current wind speed in m/s (hover to see current wind gust speed)